EW4713 Weather Reports


Display with metric or nautical units.
time (UTC)temp
F
wind
direction
speed
MPH
gust
MPH
rain 1hr
in
rain 24hr
in
rain mn
in
humidity
%
barometer
mb
20260902104203 53 106 0.0 1.0 0.00 0.00 0.00 99 1010.0
20260902103701 53 106 0.0 1.0 0.00 0.00 0.00 99 1010.0
20260902103202 53 74 0.0 1.0 0.00 0.00 0.00 99 1010.0
20260902102701 53 75 0.0 1.0 0.00 0.00 0.00 99 1010.0
20260902102203 53 75 0.0 1.0 0.00 0.00 0.00 99 1010.0
20260902101701 53 180 0.0 0.0 0.00 0.00 0.00 99 1009.7
20260902101202 54 180 0.0 0.0 0.00 0.00 0.00 99 1010.0
20260902100701 54 180 0.0 0.0 0.00 0.00 0.00 99 1010.0
20260902095700 54 180 0.0 0.0 0.00 0.00 0.00 99 1010.0
20260902095203 54 180 0.0 0.0 0.00 0.00 0.00 99 1010.0
20260902094701 54 180 0.0 0.0 0.00 0.00 0.00 99 1010.0
20260902094201 54 180 0.0 0.0 0.00 0.00 0.00 99 1010.0
20260902093700 53 180 0.0 0.0 0.00 0.00 0.00 99 1009.7
20260902093202 53 180 0.0 0.0 0.00 0.00 0.00 99 1009.7
20260902092203 54 157 0.0 1.0 0.00 0.00 0.00 99 1009.7
20260902091701 53 157 0.0 1.0 0.00 0.00 0.00 99 1009.7
20260902090701 53 0 0.0 0.0 0.00 0.00 0.00 99 1009.3
20260902090201 53 0 0.0 0.0 0.00 0.00 0.00 99 1009.3
20260902085701 53 0 0.0 0.0 0.00 0.00 0.00 99 1009.3
20260902085203 53 0 0.0 0.0 0.00 0.00 0.00 99 1009.3
20260902084701 53 0 0.0 0.0 0.00 0.00 0.00 99 1009.3
20260902084201 54 0 0.0 1.0 0.00 0.00 0.00 99 1009.3
20260902083700 54 0 0.0 1.0 0.00 0.00 0.00 99 1009.3
20260902083201 54 90 0.0 1.0 0.00 0.00 0.00 99 1009.0
20260902082701 54 81 0.0 1.0 0.00 0.00 0.00 99 1009.3
20260902082201 54 81 0.0 0.0 0.00 0.00 0.00 99 1009.0
20260902081701 55 81 0.0 0.0 0.00 0.00 0.00 99 1009.0
20260902081202 55 81 0.0 0.0 0.00 0.00 0.00 99 1009.0
20260902080702 55 81 0.0 0.0 0.00 0.00 0.00 99 1009.0
20260902080201 55 90 0.0 0.0 0.00 0.00 0.00 98 1008.5
20260902075702 55 105 0.0 0.0 0.00 0.00 0.00 98 1009.3
20260902074200 56 105 0.0 0.0 0.00 0.00 0.00 98 1009.3
20260902073700 56 105 0.0 0.0 0.00 0.00 0.00 98 1009.3
20260902073201 56 105 0.0 0.0 0.00 0.00 0.00 98 1009.3
20260902072700 56 105 0.0 0.0 0.00 0.00 0.00 98 1009.3
20260902072202 56 105 0.0 0.0 0.00 0.00 0.00 97 1009.3
20260902071700 56 105 0.0 0.0 0.00 0.00 0.00 97 1009.3
20260902071201 56 105 0.0 0.0 0.00 0.00 0.00 97 1009.3
20260902070659 56 157 0.0 1.0 0.00 0.00 0.00 97 1009.7
20260902070201 57 157 0.0 1.0 0.00 0.00 0.00 97 1009.7
20260902065659 57 165 0.0 0.0 0.00 0.00 0.00 97 1009.7
20260902064159 56 99 0.0 0.0 0.00 0.00 0.00 96 1009.7
20260902063658 56 99 0.0 0.0 0.00 0.00 0.00 96 1009.3
20260902063159 56 99 0.0 0.0 0.00 0.00 0.00 96 1009.7
20260902062656 57 99 0.0 0.0 0.00 0.00 0.00 96 1009.7
20260902062159 57 99 0.0 0.0 0.00 0.00 0.00 96 1009.7
20260902060655 57 90 0.0 0.0 0.00 0.00 0.00 95 1009.3
20260902060155 57 90 0.0 0.0 0.00 0.00 0.00 95 1009.0
20260902055655 57 90 0.0 0.0 0.00 0.00 0.00 94 1009.3
20260902055156 57 90 0.0 0.0 0.00 0.00 0.00 94 1009.3
20260902054654 57 90 0.0 0.0 0.00 0.00 0.00 94 1009.7
20260902054156 57 90 0.0 0.0 0.00 0.00 0.00 94 1009.3
20260902053654 58 90 0.0 0.0 0.00 0.00 0.00 93 1009.3
20260902053154 58 90 0.0 0.0 0.00 0.00 0.00 93 1009.3
20260902052653 58 0 0.0 0.0 0.00 0.00 0.00 93 1009.3
20260902052153 58 0 0.0 0.0 0.00 0.00 0.00 93 1009.3
20260902051653 58 0 0.0 0.0 0.00 0.00 0.00 92 1009.7
20260902051153 58 0 0.0 0.0 0.00 0.00 0.00 92 1009.3
20260902050653 58 0 0.0 0.0 0.00 0.00 0.00 92 1009.3
20260902050152 59 0 0.0 0.0 0.00 0.00 0.00 92 1009.3
20260902045653 58 0 0.0 0.0 0.00 0.00 0.00 92 1009.3
20260902045151 59 0 0.0 0.0 0.00 0.00 0.00 92 1009.3
20260902043651 59 0 0.0 0.0 0.00 0.00 0.00 93 1009.7
20260902043150 58 352 0.0 0.0 0.00 0.00 0.00 92 1009.7
20260902042651 58 352 0.0 0.0 0.00 0.00 0.00 93 1009.7
20260902042150 58 352 0.0 0.0 0.00 0.00 0.00 92 1009.7
20260902041149 58 352 0.0 0.0 0.00 0.00 0.00 92 1009.7
20260902040650 58 352 0.0 0.0 0.00 0.00 0.00 92 1009.7
20260902035147 58 352 0.0 0.0 0.00 0.00 0.00 92 1009.3
20260902034648 58 352 0.0 0.0 0.00 0.00 0.00 91 1009.3
20260902034147 59 352 0.0 0.0 0.00 0.00 0.00 91 1009.3
20260902033146 59 352 0.0 0.0 0.00 0.00 0.00 91 1009.7
20260902032648 59 352 0.0 0.0 0.00 0.00 0.00 91 1009.7
20260902032145 59 352 0.0 0.0 0.00 0.00 0.00 90 1009.7
20260902031647 59 0 0.0 0.0 0.00 0.00 0.00 90 1009.3
20260902031145 59 0 0.0 0.0 0.00 0.00 0.00 90 1009.7
20260902030646 60 0 0.0 0.0 0.00 0.00 0.00 90 1009.3
20260902030144 60 0 0.0 0.0 0.00 0.00 0.00 90 1009.3
20260902025646 60 0 0.0 0.0 0.00 0.00 0.00 89 1009.7
20260902025144 60 0 0.0 0.0 0.00 0.00 0.00 89 1009.3
20260902024645 60 0 0.0 0.0 0.00 0.00 0.00 88 1009.3
20260902023645 60 0 0.0 0.0 0.00 0.00 0.00 88 1009.7
20260902023143 61 0 0.0 0.0 0.00 0.00 0.00 87 1009.3
20260902022644 61 0 0.0 0.0 0.00 0.00 0.00 87 1009.7
20260902022142 61 90 0.0 0.0 0.00 0.00 0.00 87 1009.7
20260902021643 61 90 0.0 0.0 0.00 0.00 0.00 87 1009.7
20260902021142 61 90 0.0 0.0 0.00 0.00 0.00 87 1009.3
20260902020642 62 90 0.0 0.0 0.00 0.00 0.00 86 1009.7
20260902020141 62 90 0.0 0.0 0.00 0.00 0.00 86 1009.3
20260902015640 62 90 0.0 0.0 0.00 0.00 0.00 85 1009.3
20260902015143 63 90 0.0 0.0 0.00 0.00 0.00 85 1009.3
20260902014642 63 90 0.0 0.0 0.00 0.00 0.00 85 1009.0
20260902014140 63 90 0.0 0.0 0.00 0.00 0.00 84 1009.0
20260902013639 63 90 0.0 0.0 0.00 0.00 0.00 83 1009.0
20260902012639 64 90 0.0 0.0 0.00 0.00 0.00 83 1009.0
20260902012140 65 90 0.0 0.0 0.00 0.00 0.00 83 1009.0
20260902011638 65 90 0.0 0.0 0.00 0.00 0.00 79 1008.5
20260902011139 66 90 0.0 0.0 0.00 0.00 0.00 82 1009.0
20260902005640 67 90 0.0 0.0 0.00 0.00 0.00 76 1009.0
20260902005130 68 90 0.0 0.0 0.00 0.00 0.00 74 1008.5
20260902004629 69 90 0.0 0.0 0.00 0.00 0.00 72 1008.5
20260902003129 71 90 0.0 0.0 0.00 0.00 0.00 71 1008.5
20260902002628 71 90 0.0 0.0 0.00 0.00 0.00 64 1009.0
20260902002129 72 279 0.0 0.0 0.00 0.00 0.00 64 1008.5
20260902001629 72 106 0.0 1.0 0.00 0.00 0.00 61 1008.5
20260902001129 73 106 0.0 2.0 0.00 0.00 0.00 64 1009.0
20260902000630 73 98 1.0 2.0 0.00 0.00 0.00 61 1009.0
20260901235628 74 68 0.0 2.0 0.00 0.00 0.00 61 1009.0
20260901235129 74 68 0.0 2.0 0.00 0.00 0.00 60 1009.0
20260901234630 75 328 0.0 2.0 0.00 0.00 0.00 59 1008.5
20260901234129 75 99 0.0 2.0 0.00 0.00 0.00 58 1008.5
20260901233631 76 99 0.0 2.0 0.00 0.00 0.00 56 1008.5
20260901233129 76 147 0.0 4.0 0.00 0.00 0.00 58 1009.0
20260901232631 75 90 0.0 4.0 0.00 0.00 0.00 56 1008.5
20260901231631 75 98 0.0 2.0 0.00 0.00 0.00 57 1008.5
20260901231129 75 139 0.0 2.0 0.00 0.00 0.00 57 1008.5
20260901230630 75 346 0.0 3.0 0.00 0.00 0.00 57 1009.0
20260901230128 75 103 0.0 3.0 0.00 0.00 0.00 57 1009.0
20260901225630 75 90 0.0 5.0 0.00 0.00 0.00 58 1008.5
20260901225129 74 85 0.0 5.0 0.00 0.00 0.00 56 1008.5
20260901224129 75 352 0.0 3.0 0.00 0.00 0.00 60 1008.5
20260901223629 75 90 0.0 3.0 0.00 0.00 0.00 56 1008.5
20260901223128 75 0 0.0 2.0 0.00 0.00 0.00 56 1008.5
20260901222629 76 339 2.0 5.0 0.00 0.00 0.00 59 1009.0
20260901222128 76 342 0.0 5.0 0.00 0.00 0.00 55 1008.5
20260901221627 76 90 1.0 4.0 0.00 0.00 0.00 61 1008.5
20260901220626 77 98 0.0 2.0 0.00 0.00 0.00 56 1009.0
20260901220127 77 8 0.0 5.0 0.00 0.00 0.00 58 1008.5
20260901215628 76 90 0.0 5.0 0.00 0.00 0.00 55 1008.5
20260901215126 77 285 0.0 5.0 0.00 0.00 0.00 55 1008.5
20260901214626 77 85 0.0 6.0 0.00 0.00 0.00 52 1008.5
20260901214127 78 90 0.0 6.0 0.00 0.00 0.00 52 1008.5
20260901213124 78 234 0.0 4.0 0.00 0.00 0.00 52 1008.5
20260901212625 78 174 1.0 3.0 0.00 0.00 0.00 52 1008.5
20260901212123 78 288 0.0 7.0 0.00 0.00 0.00 52 1008.5
20260901211624 77 135 0.0 7.0 0.00 0.00 0.00 52 1008.5
20260901211123 78 270 0.0 2.0 0.00 0.00 0.00 53 1008.5
20260901210622 77 126 0.0 4.0 0.00 0.00 0.00 56 1008.5
20260901210123 77 33 2.0 4.0 0.00 0.00 0.00 52 1008.5
20260901205622 77 11 0.0 4.0 0.00 0.00 0.00 52 1008.5
20260901205122 78 60 0.0 6.0 0.00 0.00 0.00 52 1008.5
20260901204621 79 173 0.0 6.0 0.00 0.00 0.00 54 1008.5
20260901204122 80 120 0.0 5.0 0.00 0.00 0.00 54 1008.5
20260901203623 79 82 2.0 5.0 0.00 0.00 0.00 54 1008.5
20260901202620 80 144 2.0 5.0 0.00 0.00 0.00 51 1008.5
20260901202120 79 14 0.0 5.0 0.00 0.00 0.00 54 1008.5
20260901201621 80 187 0.0 4.0 0.00 0.00 0.00 57 1008.5
20260901200619 78 0 0.0 6.0 0.00 0.00 0.00 56 1009.0
20260901200120 78 8 0.0 5.0 0.00 0.00 0.00 56 1009.0
20260901195119 78 66 1.0 7.0 0.00 0.00 0.00 55 1008.5
20260901193618 77 326 3.0 8.0 0.00 0.00 0.00 58 1009.0
20260901192617 77 180 1.0 6.0 0.00 0.00 0.00 60 1009.0
20260901192117 76 195 0.0 6.0 0.00 0.00 0.00 55 1009.0
20260901191618 77 349 3.0 5.0 0.00 0.00 0.00 55 1009.0
20260901191116 78 0 0.0 3.0 0.00 0.00 0.00 57 1009.0
20260901190116 78 295 0.0 11.0 0.00 0.00 0.00 56 1009.0
20260901185114 79 145 0.0 6.0 0.00 0.00 0.00 52 1009.0
20260901184615 78 351 2.0 6.0 0.00 0.00 0.00 54 1009.0
20260901184116 78 146 2.0 6.0 0.00 0.00 0.00 55 1009.0
20260901183614 78 66 0.0 6.0 0.00 0.00 0.00 54 1009.0
20260901183114 78 114 2.0 6.0 0.00 0.00 0.00 57 1009.3
20260901182614 77 85 2.0 6.0 0.00 0.00 0.00 56 1009.3
20260901182113 77 4 0.0 8.0 0.00 0.00 0.00 56 1009.3
20260901181614 77 30 2.0 8.0 0.00 0.00 0.00 56 1009.3
20260901181113 78 117 1.0 5.0 0.00 0.00 0.00 56 1009.3
20260901180113 77 8 2.0 4.0 0.00 0.00 0.00 57 1009.0
20260901175611 77 150 2.0 4.0 0.00 0.00 0.00 56 1009.0
20260901175112 77 180 2.0 5.0 0.00 0.00 0.00 58 1009.3
20260901174611 76 131 2.0 5.0 0.00 0.00 0.00 57 1009.0
20260901174112 77 99 0.0 5.0 0.00 0.00 0.00 58 1009.0
20260901173614 77 183 2.0 6.0 0.00 0.00 0.00 54 1009.3
20260901173111 77 4 6.0 9.0 0.00 0.00 0.00 56 1009.3
20260901172610 76 39 3.0 9.0 0.00 0.00 0.00 59 1009.3
20260901172109 76 16 2.0 4.0 0.00 0.00 0.00 57 1009.0
20260901171609 76 172 0.0 6.0 0.00 0.00 0.00 56 1009.0
20260901171109 76 175 0.0 6.0 0.00 0.00 0.00 61 1009.0
20260901170610 76 255 1.0 5.0 0.00 0.00 0.00 59 1009.0
20260901170108 75 173 0.0 8.0 0.00 0.00 0.00 57 1009.3
20260901165608 75 180 1.0 8.0 0.00 0.00 0.00 57 1009.0
20260901165109 75 42 3.0 4.0 0.00 0.00 0.00 58 1009.3
20260901164107 74 180 0.0 4.0 0.00 0.00 0.00 59 1009.3
20260901163608 74 13 0.0 7.0 0.00 0.00 0.00 62 1009.3
20260901163107 73 101 4.0 7.0 0.00 0.00 0.00 60 1009.3
20260901162106 73 98 2.0 7.0 0.00 0.00 0.00 62 1009.3
20260901161606 73 127 2.0 5.0 0.00 0.00 0.00 62 1009.3
20260901161107 72 30 2.0 8.0 0.00 0.00 0.00 62 1009.3
20260901160605 72 18 1.0 8.0 0.00 0.00 0.00 64 1009.7
20260901155606 72 180 0.0 9.0 0.00 0.00 0.00 65 1009.7
20260901155104 72 117 0.0 9.0 0.00 0.00 0.00 65 1009.7
20260901154604 71 180 0.0 5.0 0.00 0.00 0.00 67 1009.3
20260901154104 71 353 1.0 5.0 0.00 0.00 0.00 65 1009.7
20260901152604 70 349 2.0 4.0 0.00 0.00 0.00 69 1009.7
20260901152102 70 97 0.0 4.0 0.00 0.00 0.00 71 1009.7
20260901151603 70 205 0.0 5.0 0.00 0.00 0.00 71 1009.7
20260901151101 69 354 1.0 6.0 0.00 0.00 0.00 70 1009.7
20260901150602 69 180 0.0 6.0 0.00 0.00 0.00 70 1009.7
20260901145602 69 23 2.0 6.0 0.00 0.00 0.00 70 1009.3
20260901145101 69 337 0.0 6.0 0.00 0.00 0.00 71 1009.3
20260901144602 70 139 2.0 5.0 0.00 0.00 0.00 72 1009.7
20260901144100 70 120 0.0 5.0 0.00 0.00 0.00 71 1009.3
20260901143601 69 90 0.0 6.0 0.00 0.00 0.00 70 1009.3
20260901143059 69 139 0.0 6.0 0.00 0.00 0.00 71 1009.3
20260901142058 68 140 2.0 4.0 0.00 0.00 0.00 72 1009.3
20260901141600 68 66 1.0 5.0 0.00 0.00 0.00 72 1009.3
20260901141058 68 352 0.0 4.0 0.00 0.00 0.00 73 1009.0
20260901140559 69 203 2.0 4.0 0.00 0.00 0.00 73 1009.0
20260901140057 68 8 3.0 3.0 0.00 0.00 0.00 74 1009.0
20260901135533 67 5 1.0 4.0 0.00 0.00 0.00 74 1009.0
20260901135031 67 133 0.0 4.0 0.00 0.00 0.00 74 1009.0
20260901134532 66 0 0.0 4.0 0.00 0.00 0.00 76 1009.0
20260901134031 66 75 1.0 3.0 0.00 0.00 0.00 76 1009.0
20260901133531 66 20 0.0 3.0 0.00 0.00 0.00 77 1009.0
20260901133030 65 102 0.0 3.0 0.00 0.00 0.00 79 1009.0
20260901132531 64 105 0.0 3.0 0.00 0.00 0.00 80 1009.0
20260901132029 62 0 0.0 2.0 0.00 0.00 0.00 84 1008.5
20260901131529 61 90 0.0 2.0 0.00 0.00 0.00 85 1008.5
20260901131029 60 90 0.0 2.0 0.00 0.00 0.00 87 1009.0
20260901130528 59 99 0.0 3.0 0.00 0.00 0.00 89 1008.5
20260901130029 59 106 0.0 3.0 0.00 0.00 0.00 88 1009.0
20260901125530 58 90 0.0 2.0 0.00 0.00 0.00 89 1009.0
20260901124530 57 344 2.0 2.0 0.00 0.00 0.00 92 1009.0
20260901124028 56 81 0.0 2.0 0.00 0.00 0.00 93 1009.0
20260901123530 56 114 2.0 2.0 0.00 0.00 0.00 95 1009.3
20260901123030 55 82 1.0 2.0 0.00 0.00 0.00 95 1009.0
20260901122530 55 90 0.0 2.0 0.00 0.00 0.00 95 1009.0
20260901122030 55 106 0.0 1.0 0.00 0.00 0.00 95 1009.0
20260901121530 54 90 0.0 2.0 0.00 0.00 0.00 96 1009.0
20260901121029 54 90 0.0 2.0 0.00 0.00 0.00 96 1009.3
20260901120530 54 99 0.0 1.0 0.00 0.00 0.00 96 1009.0
20260901115530 53 99 0.0 1.0 0.00 0.00 0.00 97 1008.5
20260901115029 53 99 0.0 2.0 0.00 0.00 0.00 97 1008.5
20260901114029 53 90 0.0 1.0 0.00 0.00 0.00 97 1008.5
20260901113030 53 90 0.0 0.0 0.00 0.00 0.00 97 1008.5
20260901112530 53 6 0.0 1.0 0.00 0.00 0.00 97 1008.5
20260901111530 53 0 1.0 1.0 0.00 0.00 0.00 97 1008.5
20260901111029 53 15 0.0 1.0 0.00 0.00 0.00 97 1008.5
20260901110530 53 99 0.0 0.0 0.00 0.00 0.00 96 1008.5
20260901110030 53 0 0.0 0.0 0.00 0.00 0.00 96 1008.5
20260901105531 53 0 0.0 0.0 0.00 0.00 0.00 96 1008.2
20260901105029 53 0 0.0 1.0 0.00 0.00 0.00 96 1008.2
20260901104530 53 7 0.0 2.0 0.00 0.00 0.00 96 1008.2